Regional Weather Roundup
Issued by NWS Charleston, SC

Current Version | Previous Version | Text Only | Print | Product List | Glossary Off
Versions: 1 2 3 4 5 6 7 8 9 10 11 12 13 14 15 16 17 18 19 20 21 22 23 24 25 26 27 28 29 30 31 32 33 34 35 36 37 38 39 40 41 42 43 44 45 46 47 48 49 50
000 ASUS42 KCHS 011813 RWRCHS REGIONAL WEATHER ROUNDUP NATIONAL WEATHER SERVICE CHARLESTON SC 200 PM EDT SUN MAY 01 2016 NOTE: "FAIR" INDICATES FEW OR NO CLOUDS BELOW 12,000 FEET WITH NO SIGNIFICANT WEATHER AND/OR OBSTRUCTIONS TO VISIBILITY. NOT ALL STATIONS ARE QUALITY CONTROLLED. USE DATA WITH CAUTION... ESPECIALLY DEWPOINT OBSERVATIONS. SCZ027-030-031-034>040-042>050-011900- ...SOUTHEAST SOUTH CAROLINA... CITY SKY/WX TMP DP RH WIND PRES REMARKS N CHARLESTON CLOUDY 79 68 69 S10 30.06F 6HR MIN TEMP: 75; 6HR MAX TEMP: 82; 6HR PCP: 0.03; WATERFRONT PRK N/A 77 71 82 S12 30.05F MOUNT PLEASANT FAIR 77 72 83 S10G21 30.07F JOHNS ISLAND FAIR 81 73 78 S14 30.06F PINOPOLIS N/A 86 70 58 S5 29.97F HX 90 MONCKS CORNER FAIR 79 64 61 S10G17 30.05F SUMMERVILLE FAIR 81 68 65 SE8 30.06F BEAUFORT MCAS PTSUNNY 85 66 53 S9G17 30.04F 6HR MIN TEMP: 76; 6HR MAX TEMP: 87; 6HR PCP: TRACE; BEAUFORT ARPT FAIR 81 66 61 S12G18 30.05F HILTON HEAD IS MOSUNNY 77 70 78 S12G21 30.07F WALTERBORO PTCLDY 77 77 100 SE6 30.05F ALLENDALE MOCLDY 84 66 54 S10 30.01F ...SOUTHERN MIDLANDS AND PEE DEE... CITY SKY/WX TMP DP RH WIND PRES REMARKS GEORGETOWN MOCLDY 79 66 65 S9G18 30.08F KINGSTREE MOCLDY 81 66 61 S9 30.04F ORANGEBURG TSTM 73 70 90 SE5 30.05R FOG 6HR MIN TEMP: 72; 6HR MAX TEMP: 86; 6HR PCP: 0.09; BARNWELL MOCLDY 86 70 58 S7 30.02F HX 90 AIKEN MOCLDY 79 66 65 S8 30.06F MANNING NOT AVBL COLUMBIA CLOUDY 85 66 53 NW9 30.00F 6HR MIN TEMP: 71; 6HR MAX TEMP: 86; 6HR PCP: 0.13; SUMTER CLOUDY 73 64 73 N20 30.03F THUNDER HAZE 6HR PCP: 0.02; FLORENCE CLOUDY 67 65 93 SE9 30.07F 6HR MIN TEMP: 66; 6HR MAX TEMP: 75; 6HR PCP: 0.61; MYRTLE BEACH CLOUDY 75 64 69 S14 30.10F N MYRTLE BEACH CLOUDY 75 67 76 S6 30.09F 6HR MIN TEMP: 72; 6HR MAX TEMP: 76; $$ GAZ063-065-086>088-099>101-113>116-118-119-134>141-150-011900- ...SOUTHEAST GEORGIA... CITY SKY/WX TMP DP RH WIND PRES REMARKS SAVANNAH ARPT PTSUNNY 83 65 54 S10 30.05F 6HR MIN TEMP: 75; 6HR MAX TEMP: 86; HUNTER AAF PTSUNNY 81 72 74 SW12 30.03F 6HR MIN TEMP: 75; 6HR MAX TEMP: 83; 6HR PCP: TRACE; FORT STEWART PTSUNNY 83 65 54 S6 30.03F 6HR MIN TEMP: 73; 6HR MAX TEMP: 84; 6HR PCP: 0.01; STATESBORO PTSUNNY 89 71 56 S7 30.03F HX 94 SYLVANIA MOCLDY 84 71 64 SW5 30.04F CLAXTON FAIR 84 72 66 CALM 30.03F HX 90 ...CSRA...CENTRAL AND FAR SOUTHEAST GEORGIA... CITY SKY/WX TMP DP RH WIND PRES REMARKS THOMSON MOSUNNY 87 68 53 W7 30.07S HX 90 AUGUSTA-BUSH MOSUNNY 86 67 52 SW13 30.00F 6HR MIN TEMP: 72; 6HR MAX TEMP: 86; AUGUSTA-DANIEL SUNNY 86 65 49 VRB5 30.02F SWAINSBORO MOCLDY 73 72 94 CALM 30.04F VIDALIA MOSUNNY 86 68 54 S8 30.03F EASTMAN FAIR 83 71 66 S7 30.06F HAZLEHURST FAIR 86 69 57 S7 30.02F HX 90 ALMA MOSUNNY 85 67 54 S9 30.04F 6HR MIN TEMP: 72; 6HR MAX TEMP: 86; WAYCROSS MOSUNNY 85 68 56 SW5 30.04F JESUP MOCLDY 86 72 62 SE6 30.05F HX 92 BAXLEY PTSUNNY 86 68 54 S10 30.04S BRUNSWICK MOSUNNY 88 70 55 SE14 30.05F HX 92 SAINT SIMONS SUNNY 82 72 71 SE13 30.05F 6HR MIN TEMP: 75; 6HR MAX TEMP: 82; $$ SCZ027-028-034-036>038-045-046-048>050-GAZ119-141-011900- ...LAKE AND SUPPLEMENTAL COASTAL OBSERVATIONS... STATION/POSITION TIME TEMP WIND PRES WAVE SWELL AIR SEA DIR/SP/G HT/PER HT/PER/DIR (UTC) (F) (DEG/KT/KT) (MB) (FT/S) (FT/S/D) WINYAH BAY NOT AVBL LAKE MURRAY 1700 79 200/ 6/ 10 1016.3F ACE BASIN NERRS NOT AVBL FORT PULASKI 1700 79 73 180/ 8/ 19 1018.7F SAPELO ISLAND 1700 83 150/ 10 1018.0F $$ ANZ835-935-AMZ111-154-330-350-352-354-370-450-454-472-011900- ...C-MAN AND BUOY OBSERVATIONS... STATION/POSITION TIME TEMP WIND PRES WAVE SWELL AIR SEA DIR/SP/G HT/PER HT/PER/DIR (UTC) (F) (DEG/KT/KT) (MB) (FT/S) (FT/S/D) BUOY 41004 1750 75 73 170/ 10/ 14 1018.4F 5/ 6 3/ 6 BUOY 41008 NOT AVBL FOLLY BEACH CMAN 1700 74 170/ 10/ 12 1019.1S CAPERS NEARSHORE 1708 73 72 190/ 8/ 12 1018.8F FRIPP NEARSHORE 1708 74 74 180/ 8/ 10 1017.8F STATION/POSITION TIME TEMP WIND PRES WAVE SWELL AIR SEA DIR/SP/G HT/PER HT/PER/DIR (UTC) (F) (DEG/KT/KT) (MB) (FT/S) (FT/S/D) 5E ST. MARYS GA 1721 74 N/A 3/ 5 FRYING PAN BUOY 1700 73 71 170/ 8/ 10 1019.4F BUOY 41025 1750 74 74 190/ 16/ 17 1019.5F 4/10 3/ 70/10 CAPE LOOKOUT NC 1700 71 160/ 8/ 9 1019.7F BUOY 41002 1750 72 140/ 10/ 14 1020.7R 4/10 3/ 10/10 BUOY 41010 1720 77 78 150/ 10/ 12 1018.7F ST AUGUSTINE FL 1800 75 73 120/ 14/ 16 1018.2F $$

USA.gov is the U.S. government's official web portal to all federal, state and local government web resources and services.